STARLINK-3939 (52545 NORAD) Tracking and Keplerian Element Data

This shows tracking and keplerian element data for the satellite.

Feedback or suggestion? Click here.




ElementValue
Catalog52545
NameSTARLINK-3939
Epoch Orbit130
Epoch Day167.08334491
Epoch Year2022
RAAN130.3847
Inclination53.2165
Eccentricity0.000121
Argument of Perigee61.25
Mean Anonmoly23.2297
Mean Motion15.49892206
Decay Rate-0.00017119
L11 52545U 22051N 22167.08334491 -.00017119 00000+0 -29424-3 0 9995
L22 52545 53.2165 130.3847 0001210 61.2500 23.2297 15.49892206 1304

Live tracking and technical data element details for STARLINK-3939 (NORAD 52545). STARLINK-3939 can be tracked NOW for your location showing map with azimuth and elevation plus other details from your city location.

Track the satellite on the map from your city or location and see movement details for azimuth, elevation, latitude, longitude, range, height, and movement on the map or in text.







IsCatalogInMostPopularTable: catalog: 52545, numindb: 3
Update: records affected: 1



GetName: 52545 STARLINK-3939

Hit Count: updated at: Mon, 27 Jun 2022 06:32:53 GMT